PGT318 LTFJ-UGTB

Flight info

Callsign PGT318
Flight time N/A
Altitude 39000
Route VICEN1K/24R VICEN UT380 ASMAP UL333 LATGA UT363 ESB UT364 ILHAN UW71 TBN UG261 NOLGA N61 LAGAS
Aircraft A320/M-SDFGHIJ1LORVWY/LB1

Departure

Time N/A
Airport Istanbul Sabiha Gökçen International Airport (LTFJ)

Arrival

Time 2026-04-26 14:52
Airport Tbilisi International Airport (UGTB)
Time Latitude Longitude Altitude Speed Heading
2026-04-26 13:56 41.23067 37.01609 38946 ft 463 kts 97°
2026-04-26 13:57 41.22411 37.10134 38954 ft 464 kts 97°
2026-04-26 13:57 41.21754 37.18609 38959 ft 464 kts 97°
2026-04-26 13:58 41.21093 37.27136 38956 ft 464 kts 97°
2026-04-26 13:58 41.20464 37.35670 38955 ft 464 kts 97°
2026-04-26 13:59 41.19846 37.44202 38954 ft 464 kts 97°
2026-04-26 13:59 41.19215 37.52670 38956 ft 464 kts 97°
2026-04-26 14:00 41.18065 37.70092 38945 ft 464 kts 97°
2026-04-26 14:01 41.17322 37.78786 38945 ft 465 kts 99°
2026-04-26 14:01 41.16542 37.87304 38946 ft 465 kts 98°
2026-04-26 14:02 41.15817 37.95778 38948 ft 465 kts 98°
2026-04-26 14:02 41.15156 38.04325 38954 ft 466 kts 97°
2026-04-26 14:03 41.14494 38.12867 38958 ft 466 kts 98°
2026-04-26 14:03 41.13795 38.21407 38952 ft 466 kts 98°
2026-04-26 14:04 41.13087 38.29903 38951 ft 467 kts 98°
2026-04-26 14:04 41.12380 38.38462 38952 ft 467 kts 98°
2026-04-26 14:05 41.11677 38.47029 38950 ft 467 kts 98°
2026-04-26 14:05 41.10964 38.55543 38946 ft 468 kts 98°
2026-04-26 14:06 41.10231 38.64109 38953 ft 468 kts 98°
2026-04-26 14:06 41.09489 38.72675 38955 ft 468 kts 99°
2026-04-26 14:07 41.08726 38.81245 38953 ft 468 kts 99°
2026-04-26 14:07 41.07942 38.89745 38946 ft 468 kts 99°
2026-04-26 14:08 41.07143 38.98308 38948 ft 468 kts 99°
2026-04-26 14:08 41.06349 39.06876 38953 ft 469 kts 99°
2026-04-26 14:09 41.05559 39.15454 38949 ft 469 kts 99°
2026-04-26 14:09 41.04776 39.23977 38952 ft 469 kts 99°
2026-04-26 14:10 41.03993 39.32560 38958 ft 469 kts 99°
2026-04-26 14:10 41.03200 39.41144 38953 ft 469 kts 99°
2026-04-26 14:11 41.01991 39.53998 38959 ft 469 kts 99°
2026-04-26 14:11 41.01179 39.62500 38944 ft 469 kts 99°
2026-04-26 14:12 41.00355 39.71069 38938 ft 470 kts 99°
2026-04-26 14:12 40.99822 39.79689 38938 ft 472 kts 88°
2026-04-26 14:13 41.01490 39.92557 38934 ft 474 kts 79°
2026-04-26 14:14 41.02768 40.01073 38944 ft 475 kts 80°
2026-04-26 14:14 41.04042 40.09673 38959 ft 476 kts 80°
2026-04-26 14:15 41.05311 40.18275 38952 ft 476 kts 79°
2026-04-26 14:15 41.06575 40.26879 38969 ft 476 kts 79°
2026-04-26 14:16 41.07822 40.35432 38968 ft 476 kts 79°
2026-04-26 14:16 41.09081 40.44049 38968 ft 477 kts 80°
2026-04-26 14:17 41.10333 40.52675 38972 ft 476 kts 80°
2026-04-26 14:17 41.11559 40.61230 38966 ft 475 kts 80°
2026-04-26 14:18 41.12785 40.69845 38957 ft 476 kts 80°
2026-04-26 14:18 41.14016 40.78472 38964 ft 476 kts 80°
2026-04-26 14:19 41.15242 40.87112 38963 ft 477 kts 80°
2026-04-26 14:19 41.16448 40.95705 38959 ft 477 kts 80°
2026-04-26 14:20 41.17662 41.04362 38963 ft 477 kts 80°
2026-04-26 14:20 41.18870 41.13032 38974 ft 478 kts 80°
2026-04-26 14:21 41.20068 41.21715 38991 ft 478 kts 80°
2026-04-26 14:21 41.21251 41.30333 38991 ft 477 kts 80°
2026-04-26 14:22 41.22436 41.39021 38999 ft 479 kts 80°
2026-04-26 14:22 41.23611 41.47707 39003 ft 478 kts 81°
2026-04-26 14:23 41.24786 41.56396 39000 ft 478 kts 80°
2026-04-26 14:23 41.25958 41.65095 39011 ft 478 kts 81°
2026-04-26 14:24 41.27111 41.73740 39012 ft 478 kts 81°
2026-04-26 14:24 41.28263 41.82441 39011 ft 478 kts 81°
2026-04-26 14:25 41.29414 41.91149 38999 ft 478 kts 81°
2026-04-26 14:25 41.30542 41.99781 39004 ft 474 kts 81°
2026-04-26 14:26 41.31659 42.08466 38997 ft 476 kts 81°
2026-04-26 14:26 41.32775 42.17141 39012 ft 476 kts 81°
2026-04-26 14:27 41.33888 42.25828 39013 ft 476 kts 81°
2026-04-26 14:27 41.34986 42.34464 39033 ft 477 kts 81°
2026-04-26 14:28 41.36082 42.43165 39039 ft 477 kts 80°
2026-04-26 14:28 41.36629 42.47520 38923 ft 477 kts 81°
2026-04-26 14:28 41.37174 42.51859 38674 ft 474 kts 80°
2026-04-26 14:28 41.37707 42.56185 38389 ft 474 kts 81°
2026-04-26 14:29 41.38249 42.60522 38106 ft 476 kts 81°
2026-04-26 14:29 41.38799 42.64879 37817 ft 478 kts 81°
2026-04-26 14:29 41.39342 42.69180 37560 ft 477 kts 81°
2026-04-26 14:29 41.39878 42.73546 37286 ft 476 kts 82°
2026-04-26 14:30 41.40405 42.77920 37020 ft 479 kts 82°
2026-04-26 14:30 41.40927 42.82309 36577 ft 481 kts 82°
2026-04-26 14:30 41.41456 42.86724 35644 ft 485 kts 82°
2026-04-26 14:30 41.41992 42.91171 34728 ft 490 kts 83°
2026-04-26 14:31 41.42542 42.95686 33728 ft 497 kts 83°
2026-04-26 14:31 41.43096 43.00238 32818 ft 495 kts 84°
2026-04-26 14:31 41.43627 43.04670 32383 ft 489 kts 84°
2026-04-26 14:31 41.44164 43.09127 31755 ft 484 kts 84°
2026-04-26 14:32 41.44696 43.13517 31165 ft 476 kts 83°
2026-04-26 14:32 41.45222 43.17850 30576 ft 472 kts 84°
2026-04-26 14:32 41.45734 43.22154 29964 ft 468 kts 84°
2026-04-26 14:32 41.46232 43.26420 29357 ft 463 kts 84°
2026-04-26 14:33 41.46721 43.30633 28812 ft 457 kts 84°
2026-04-26 14:33 41.47196 43.34735 28256 ft 452 kts 84°
2026-04-26 14:33 41.47672 43.38849 27697 ft 446 kts 83°
2026-04-26 14:33 41.48142 43.42913 27155 ft 441 kts 84°
2026-04-26 14:34 41.48612 43.46934 26620 ft 436 kts 83°
2026-04-26 14:34 41.49075 43.50909 26103 ft 432 kts 83°
2026-04-26 14:34 41.49533 43.54845 25611 ft 427 kts 83°
2026-04-26 14:34 41.49982 43.58742 25123 ft 423 kts 83°
2026-04-26 14:35 41.50429 43.62606 24643 ft 419 kts 83°
2026-04-26 14:35 41.50862 43.66383 24158 ft 416 kts 83°
2026-04-26 14:35 41.51294 43.70174 23683 ft 411 kts 83°
2026-04-26 14:35 41.51718 43.73934 23155 ft 408 kts 83°
2026-04-26 14:36 41.52137 43.77654 22707 ft 403 kts 83°
2026-04-26 14:36 41.52551 43.81331 22234 ft 399 kts 83°
2026-04-26 14:36 41.52963 43.84975 21756 ft 396 kts 83°
2026-04-26 14:36 41.53373 43.88586 21286 ft 392 kts 83°
2026-04-26 14:37 41.53777 43.92170 20792 ft 389 kts 83°
2026-04-26 14:37 41.54170 43.95685 20324 ft 387 kts 83°
2026-04-26 14:37 41.54565 43.99234 19836 ft 386 kts 83°
2026-04-26 14:37 41.54956 44.02769 19350 ft 385 kts 83°
2026-04-26 14:38 41.55345 44.06296 18862 ft 384 kts 83°
2026-04-26 14:38 41.55734 44.09817 18355 ft 383 kts 83°
2026-04-26 14:38 41.56120 44.13322 17826 ft 380 kts 82°
2026-04-26 14:38 41.56375 44.15626 17503 ft 378 kts 82°
2026-04-26 14:39 41.57237 44.20102 16865 ft 376 kts 67°
2026-04-26 14:39 41.58494 44.23128 16410 ft 370 kts 53°
2026-04-26 14:39 41.60203 44.25675 15914 ft 367 kts 39°
2026-04-26 14:39 41.62248 44.27690 15448 ft 364 kts 31°
2026-04-26 14:40 41.64344 44.29575 14978 ft 362 kts 32°
2026-04-26 14:40 41.66428 44.31458 14510 ft 361 kts 32°
2026-04-26 14:40 41.68501 44.33338 14036 ft 359 kts 32°
2026-04-26 14:40 41.70566 44.35212 13534 ft 358 kts 32°
2026-04-26 14:41 41.72592 44.37050 13054 ft 355 kts 32°
2026-04-26 14:41 41.74626 44.38898 12491 ft 350 kts 32°
2026-04-26 14:41 41.76595 44.40690 11985 ft 335 kts 32°
2026-04-26 14:41 41.78479 44.42406 11536 ft 320 kts 33°
2026-04-26 14:42 41.80276 44.44046 11113 ft 307 kts 32°
2026-04-26 14:42 41.82015 44.45632 10681 ft 298 kts 33°
2026-04-26 14:42 41.83660 44.47244 10292 ft 288 kts 40°
2026-04-26 14:42 41.85025 44.49074 10200 ft 268 kts 45°
2026-04-26 14:43 41.86274 44.50824 10093 ft 258 kts 45°
2026-04-26 14:43 41.87496 44.52526 9984 ft 249 kts 45°
2026-04-26 14:43 41.88704 44.54209 9462 ft 254 kts 45°
2026-04-26 14:43 41.89944 44.55935 8806 ft 259 kts 45°
2026-04-26 14:44 41.91122 44.57711 8521 ft 249 kts 57°
2026-04-26 14:44 41.91757 44.59767 8420 ft 233 kts 80°
2026-04-26 14:44 41.91792 44.61873 8302 ft 221 kts 101°
2026-04-26 14:44 41.91302 44.63770 8065 ft 210 kts 122°
2026-04-26 14:45 41.90422 44.65227 7943 ft 202 kts 140°
2026-04-26 14:45 41.90074 44.65664 7914 ft 203 kts 138°
2026-04-26 14:45 41.88387 44.67824 7824 ft 202 kts 137°
2026-04-26 14:45 41.87365 44.69129 7662 ft 203 kts 137°
2026-04-26 14:46 41.86350 44.70424 7383 ft 200 kts 137°
2026-04-26 14:46 41.85344 44.71706 7091 ft 199 kts 137°
2026-04-26 14:46 41.84683 44.72548 6899 ft 197 kts 137°
2026-04-26 14:46 41.83689 44.73815 6610 ft 197 kts 138°
2026-04-26 14:47 41.82380 44.75483 6212 ft 195 kts 137°
2026-04-26 14:47 41.81399 44.76732 5912 ft 193 kts 136°
2026-04-26 14:47 41.80429 44.77965 5609 ft 191 kts 136°
2026-04-26 14:47 41.79464 44.79193 5313 ft 191 kts 136°
2026-04-26 14:48 41.78510 44.80405 5017 ft 187 kts 136°
2026-04-26 14:48 41.77887 44.81197 4832 ft 185 kts 136°
2026-04-26 14:48 41.76961 44.82373 4548 ft 181 kts 136°
2026-04-26 14:48 41.76054 44.83524 4270 ft 179 kts 136°
2026-04-26 14:49 41.75157 44.84663 3976 ft 175 kts 137°
2026-04-26 14:49 41.74034 44.86090 3648 ft 160 kts 137°
2026-04-26 14:49 41.73262 44.87068 3389 ft 147 kts 137°
2026-04-26 14:49 41.72546 44.87978 3129 ft 138 kts 139°
2026-04-26 14:50 41.72090 44.88554 2976 ft 136 kts 138°
2026-04-26 14:50 41.71409 44.89414 2778 ft 134 kts 137°
2026-04-26 14:50 41.70735 44.90272 2517 ft 134 kts 137°
2026-04-26 14:50 41.70067 44.91126 2336 ft 132 kts 137°
2026-04-26 14:51 41.69187 44.92247 2047 ft 132 kts 137°
2026-04-26 14:51 41.68528 44.93085 1827 ft 129 kts 138°
2026-04-26 14:51 41.67880 44.93904 1614 ft 128 kts 137°
2026-04-26 14:51 41.67456 44.94435 1527 ft 120 kts 137°
2026-04-26 14:52 41.66941 44.95079 1522 ft 78 kts 137°
2026-04-26 14:52 41.66665 44.95425 1523 ft 40 kts 137°
2026-04-26 14:52 41.66530 44.95577 1523 ft 14 kts 150°
2026-04-26 14:52 41.66510 44.95605 1520 ft 2 kts 57°
2026-04-26 14:53 41.66540 44.95583 1523 ft 10 kts 322°
2026-04-26 14:53 41.66620 44.95482 1524 ft 12 kts 316°
2026-04-26 14:53 41.66662 44.95430 1525 ft 14 kts 317°
2026-04-26 14:53 41.66775 44.95288 1524 ft 18 kts 316°
2026-04-26 14:54 41.66830 44.95217 1522 ft 14 kts 316°
2026-04-26 14:54 41.66896 44.95193 1521 ft 10 kts 28°
2026-04-26 14:54 41.66941 44.95250 1524 ft 8 kts 44°
2026-04-26 14:54 41.66982 44.95302 1522 ft 10 kts 44°
2026-04-26 14:55 41.67046 44.95384 1525 ft 16 kts 44°
2026-04-26 14:55 41.67136 44.95501 1523 ft 20 kts 40°
2026-04-26 14:55 41.67222 44.95608 1526 ft 11 kts 43°
2026-04-26 14:55 41.67215 44.95695 1524 ft 14 kts 136°
2026-04-26 14:56 41.67136 44.95801 1520 ft 19 kts 135°
2026-04-26 14:56 41.67055 44.95946 1522 ft 20 kts 123°
2026-04-26 14:56 41.66958 44.96085 1521 ft 21 kts 133°
2026-04-26 14:56 41.66872 44.96219 1521 ft 10 kts 133°
2026-04-26 14:57 41.66842 44.96262 1527 ft 7 kts 133°
2026-04-26 14:57 41.66810 44.96319 1520 ft 6 kts 93°
2026-04-26 14:57 41.66844 44.96371 1522 ft 8 kts 43°
2026-04-26 14:57 41.66859 44.96390 1527 ft 1 kts 44°
2026-04-26 14:58 41.66863 44.96395 1527 ft 0 kts 44°